contact:dominique.lefevre@mio.osupytheas.fr, maurice.libes@osupytheas.fr, didier.mallarino@osupytheas.fr
Project:EMSO http://www.emso-fr.org/EMSO-France
Depth: 2436.0 m
Title:EMSO Ligure Ouest : Data MII capteur OXYGEN
DateTime,Latitude,Longitude,Optode-Type,Optode_Serial,Oxygen,Saturation_Oxygen,Temperature
DateTime,Latitude,Longitude,Optode-Type,Optode_Serial,µmol.l-1,%,degC
2019-06-08T00:01:15,42.805,6.029,4330,1995,194.781,59.571,13.291
2019-06-08T00:04:15,42.805,6.029,4330,1995,194.760,59.564,13.291
2019-06-08T00:07:15,42.805,6.029,4330,1995,194.789,59.573,13.291
2019-06-08T00:10:15,42.805,6.029,4330,1995,194.711,59.548,13.290
2019-06-08T00:13:15,42.805,6.029,4330,1995,194.803,59.576,13.290
2019-06-08T00:16:15,42.805,6.029,4330,1995,194.789,59.572,13.290
2019-06-08T00:19:15,42.805,6.029,4330,1995,194.798,59.576,13.291
2019-06-08T00:22:15,42.805,6.029,4330,1995,194.812,59.582,13.292
2019-06-08T00:25:15,42.805,6.029,4330,1995,194.753,59.563,13.291
2019-06-08T00:28:15,42.805,6.029,4330,1995,194.721,59.552,13.291
2019-06-08T00:31:15,42.805,6.029,4330,1995,194.773,59.566,13.290
2019-06-08T00:34:15,42.805,6.029,4330,1995,194.756,59.563,13.291
2019-06-08T00:37:15,42.805,6.029,4330,1995,194.747,59.561,13.291
2019-06-08T00:40:15,42.805,6.029,4330,1995,194.800,59.576,13.291
2019-06-08T00:43:15,42.805,6.029,4330,1995,194.747,59.559,13.290
2019-06-08T00:46:15,42.805,6.029,4330,1995,194.756,59.561,13.289
2019-06-08T00:49:15,42.805,6.029,4330,1995,194.808,59.578,13.290
2019-06-08T00:52:15,42.805,6.029,4330,1995,194.761,59.563,13.290
2019-06-08T00:55:15,42.805,6.029,4330,1995,194.888,59.602,13.290
2019-06-08T00:58:15,42.805,6.029,4330,1995,194.867,59.595,13.289
2019-06-08T01:01:15,42.805,6.029,4330,1995,194.851,59.589,13.289
2019-06-08T01:04:15,42.805,6.029,4330,1995,194.851,59.589,13.289
2019-06-08T01:07:15,42.805,6.029,4330,1995,194.808,59.577,13.290
2019-06-08T01:10:15,42.805,6.029,4330,1995,194.738,59.555,13.289
2019-06-08T01:13:15,42.805,6.029,4330,1995,194.620,59.520,13.290
2019-06-08T01:16:15,42.805,6.029,4330,1995,194.797,59.574,13.289
2019-06-08T01:19:15,42.805,6.029,4330,1995,194.730,59.553,13.289
2019-06-08T01:22:15,42.805,6.029,4330,1995,194.696,59.543,13.290
2019-06-08T01:25:15,42.805,6.029,4330,1995,194.745,59.559,13.290
2019-06-08T01:28:15,42.805,6.029,4330,1995,194.844,59.587,13.289
2019-06-08T01:31:15,42.805,6.029,4330,1995,194.750,59.559,13.289
2019-06-08T01:34:15,42.805,6.029,4330,1995,194.747,59.558,13.289
2019-06-08T01:37:15,42.805,6.029,4330,1995,194.771,59.566,13.290
2019-06-08T01:40:15,42.805,6.029,4330,1995,194.596,59.512,13.289
2019-06-08T01:43:15,42.805,6.029,4330,1995,194.642,59.529,13.292
2019-06-08T01:46:15,42.805,6.029,4330,1995,194.720,59.550,13.289
2019-06-08T01:49:15,42.805,6.029,4330,1995,194.725,59.552,13.290
2019-06-08T01:52:15,42.805,6.029,4330,1995,194.690,59.543,13.291
2019-06-08T01:55:15,42.805,6.029,4330,1995,194.709,59.548,13.291
2019-06-08T01:58:15,42.805,6.029,4330,1995,194.640,59.528,13.291
2019-06-08T02:01:15,42.805,6.029,4330,1995,194.610,59.518,13.291
2019-06-08T02:04:15,42.805,6.029,4330,1995,194.582,59.510,13.291
2019-06-08T02:07:15,42.805,6.029,4330,1995,194.567,59.505,13.291
2019-06-08T02:10:15,42.805,6.029,4330,1995,194.645,59.528,13.290
2019-06-08T02:13:15,42.805,6.029,4330,1995,194.573,59.508,13.292
2019-06-08T02:16:15,42.805,6.029,4330,1995,194.648,59.530,13.291
2019-06-08T02:19:15,42.805,6.029,4330,1995,194.658,59.532,13.290
2019-06-08T02:22:15,42.805,6.029,4330,1995,194.610,59.518,13.290
2019-06-08T02:25:15,42.805,6.029,4330,1995,194.574,59.508,13.292
2019-06-08T02:28:15,42.805,6.029,4330,1995,194.645,59.530,13.292
2019-06-08T02:31:15,42.805,6.029,4330,1995,194.673,59.538,13.291
2019-06-08T02:34:15,42.805,6.029,4330,1995,194.616,59.521,13.291
2019-06-08T02:37:15,42.805,6.029,4330,1995,194.667,59.534,13.290
2019-06-08T02:40:15,42.805,6.029,4330,1995,194.690,59.542,13.290
2019-06-08T02:43:15,42.805,6.029,4330,1995,194.639,59.527,13.291
2019-06-08T02:46:15,42.805,6.029,4330,1995,194.576,59.509,13.292
2019-06-08T02:49:15,42.805,6.029,4330,1995,194.617,59.520,13.290
2019-06-08T02:52:15,42.805,6.029,4330,1995,194.664,59.535,13.291
2019-06-08T02:55:15,42.805,6.029,4330,1995,194.665,59.534,13.290
2019-06-08T02:58:15,42.805,6.029,4330,1995,194.658,59.532,13.290
2019-06-08T03:01:15,42.805,6.029,4330,1995,194.695,59.543,13.290
2019-06-08T03:04:15,42.805,6.029,4330,1995,194.714,59.548,13.289
2019-06-08T03:07:15,42.805,6.029,4330,1995,194.659,59.531,13.289
2019-06-08T03:10:15,42.805,6.029,4330,1995,194.600,59.512,13.289
2019-06-08T03:13:15,42.805,6.029,4330,1995,194.618,59.518,13.289
2019-06-08T03:16:15,42.805,6.029,4330,1995,194.710,59.547,13.289
2019-06-08T03:19:15,42.805,6.029,4330,1995,194.674,59.535,13.289
2019-06-08T03:22:15,42.805,6.029,4330,1995,194.639,59.525,13.290
2019-06-08T03:25:15,42.805,6.029,4330,1995,194.598,59.513,13.289
2019-06-08T03:28:15,42.805,6.029,4330,1995,194.584,59.508,13.289
2019-06-08T03:31:14,42.805,6.029,4330,1995,194.636,59.522,13.288
2019-06-08T03:34:14,42.805,6.029,4330,1995,194.730,59.553,13.289
2019-06-08T03:37:15,42.805,6.029,4330,1995,194.714,59.548,13.290
2019-06-08T03:40:15,42.805,6.029,4330,1995,194.738,59.554,13.289
2019-06-08T03:43:15,42.805,6.029,4330,1995,194.705,59.546,13.290
2019-06-08T03:46:15,42.805,6.029,4330,1995,194.746,59.557,13.289
2019-06-08T03:49:15,42.805,6.029,4330,1995,194.674,59.537,13.290
2019-06-08T03:52:15,42.805,6.029,4330,1995,194.738,59.555,13.289
2019-06-08T03:55:15,42.805,6.029,4330,1995,194.637,59.526,13.290
2019-06-08T03:58:15,42.805,6.029,4330,1995,194.642,59.525,13.289
2019-06-08T04:01:15,42.805,6.029,4330,1995,194.670,59.536,13.290
2019-06-08T04:04:15,42.805,6.029,4330,1995,194.660,59.532,13.289
2019-06-08T04:07:14,42.805,6.029,4330,1995,194.727,59.552,13.289
2019-06-08T04:10:14,42.805,6.029,4330,1995,194.744,59.557,13.289
2019-06-08T04:13:14,42.805,6.029,4330,1995,194.612,59.517,13.290
2019-06-08T04:16:14,42.805,6.029,4330,1995,194.717,59.548,13.289
2019-06-08T04:19:14,42.805,6.029,4330,1995,194.678,59.538,13.290
2019-06-08T04:22:14,42.805,6.029,4330,1995,194.701,59.545,13.290
2019-06-08T04:25:14,42.805,6.029,4330,1995,194.716,59.550,13.291
2019-06-08T04:28:14,42.805,6.029,4330,1995,194.712,59.548,13.290
2019-06-08T04:31:14,42.805,6.029,4330,1995,194.679,59.539,13.290
2019-06-08T04:34:14,42.805,6.029,4330,1995,194.733,59.555,13.290
2019-06-08T04:37:14,42.805,6.029,4330,1995,194.662,59.534,13.290
2019-06-08T04:40:14,42.805,6.029,4330,1995,194.757,59.563,13.291
2019-06-08T04:43:14,42.805,6.029,4330,1995,194.772,59.568,13.291
2019-06-08T04:46:14,42.805,6.029,4330,1995,194.709,59.546,13.289
2019-06-08T04:49:14,42.805,6.029,4330,1995,194.713,59.549,13.290
2019-06-08T04:52:14,42.805,6.029,4330,1995,194.609,59.518,13.291
2019-06-08T04:55:14,42.805,6.029,4330,1995,194.716,59.549,13.290
2019-06-08T04:58:14,42.805,6.029,4330,1995,194.715,59.550,13.290
2019-06-08T05:01:14,42.805,6.029,4330,1995,194.647,59.528,13.290
2019-06-08T05:04:14,42.805,6.029,4330,1995,194.570,59.505,13.291
2019-06-08T05:07:14,42.805,6.029,4330,1995,194.696,59.542,13.289
2019-06-08T05:10:14,42.805,6.029,4330,1995,194.744,59.557,13.289
2019-06-08T05:13:14,42.805,6.029,4330,1995,194.773,59.567,13.290
2019-06-08T05:16:14,42.805,6.029,4330,1995,194.605,59.515,13.290
2019-06-08T05:19:14,42.805,6.029,4330,1995,194.590,59.511,13.290
2019-06-08T05:22:14,42.805,6.029,4330,1995,194.664,59.532,13.289
2019-06-08T05:25:14,42.805,6.029,4330,1995,194.648,59.528,13.289
2019-06-08T05:28:14,42.805,6.029,4330,1995,194.597,59.512,13.289
2019-06-08T05:31:14,42.805,6.029,4330,1995,194.608,59.516,13.290
2019-06-08T05:34:14,42.805,6.029,4330,1995,194.613,59.517,13.289
2019-06-08T05:37:14,42.805,6.029,4330,1995,194.647,59.526,13.288
2019-06-08T05:40:14,42.805,6.029,4330,1995,194.688,59.539,13.289
2019-06-08T05:43:14,42.805,6.029,4330,1995,194.572,59.503,13.289
2019-06-08T05:46:14,42.805,6.029,4330,1995,194.448,59.466,13.289
2019-06-08T05:49:14,42.805,6.029,4330,1995,194.358,59.439,13.289
2019-06-08T05:52:14,42.805,6.029,4330,1995,194.401,59.453,13.290
2019-06-08T05:55:14,42.805,6.029,4330,1995,194.359,59.442,13.291
2019-06-08T05:58:14,42.805,6.029,4330,1995,194.429,59.461,13.289
2019-06-08T06:01:14,42.805,6.029,4330,1995,194.508,59.487,13.291
2019-06-08T06:04:14,42.805,6.029,4330,1995,194.634,59.524,13.290
2019-06-08T06:07:14,42.805,6.029,4330,1995,194.572,59.504,13.289
2019-06-08T06:10:14,42.805,6.029,4330,1995,194.528,59.493,13.291
2019-06-08T06:13:14,42.805,6.029,4330,1995,194.465,59.473,13.290
2019-06-08T06:16:14,42.805,6.029,4330,1995,194.366,59.443,13.290
2019-06-08T06:19:14,42.805,6.029,4330,1995,194.430,59.462,13.290
2019-06-08T06:22:14,42.805,6.029,4330,1995,194.456,59.472,13.291
2019-06-08T06:25:14,42.805,6.029,4330,1995,194.381,59.446,13.289
2019-06-08T06:28:14,42.805,6.029,4330,1995,194.514,59.488,13.290
2019-06-08T06:31:14,42.805,6.029,4330,1995,194.429,59.465,13.292
2019-06-08T06:34:14,42.805,6.029,4330,1995,194.428,59.461,13.290
2019-06-08T06:37:14,42.805,6.029,4330,1995,194.514,59.489,13.291
2019-06-08T06:40:14,42.805,6.029,4330,1995,194.393,59.452,13.291
2019-06-08T06:43:14,42.805,6.029,4330,1995,194.570,59.506,13.291
2019-06-08T06:46:14,42.805,6.029,4330,1995,194.476,59.476,13.290
2019-06-08T06:49:14,42.805,6.029,4330,1995,194.560,59.502,13.290
2019-06-08T06:52:14,42.805,6.029,4330,1995,194.627,59.523,13.291
2019-06-08T06:55:14,42.805,6.029,4330,1995,194.596,59.512,13.290
2019-06-08T06:58:14,42.805,6.029,4330,1995,194.684,59.540,13.290
2019-06-08T07:01:14,42.805,6.029,4330,1995,194.566,59.504,13.290
2019-06-08T07:04:14,42.805,6.029,4330,1995,194.600,59.514,13.290
2019-06-08T07:07:14,42.805,6.029,4330,1995,194.606,59.516,13.290
2019-06-08T07:10:14,42.805,6.029,4330,1995,194.644,59.527,13.290
2019-06-08T07:13:14,42.805,6.029,4330,1995,194.680,59.538,13.289
2019-06-08T07:16:14,42.805,6.029,4330,1995,194.702,59.545,13.290
2019-06-08T07:19:14,42.805,6.029,4330,1995,194.734,59.554,13.290
2019-06-08T07:22:14,42.805,6.029,4330,1995,194.644,59.527,13.290
2019-06-08T07:25:14,42.805,6.029,4330,1995,194.730,59.553,13.289
2019-06-08T07:28:14,42.805,6.029,4330,1995,194.680,59.537,13.289
2019-06-08T07:31:14,42.805,6.029,4330,1995,194.745,59.557,13.289
2019-06-08T07:34:14,42.805,6.029,4330,1995,194.658,59.529,13.288
2019-06-08T07:37:14,42.805,6.029,4330,1995,194.642,59.525,13.288
2019-06-08T07:40:14,42.805,6.029,4330,1995,194.546,59.496,13.289
2019-06-08T07:43:14,42.805,6.029,4330,1995,194.594,59.511,13.289
2019-06-08T07:46:14,42.805,6.029,4330,1995,194.689,59.539,13.288
2019-06-08T07:49:14,42.805,6.029,4330,1995,194.648,59.527,13.289
2019-06-08T07:52:14,42.805,6.029,4330,1995,194.681,59.536,13.288
2019-06-08T07:55:14,42.805,6.029,4330,1995,194.579,59.508,13.290
2019-06-08T07:58:14,42.805,6.029,4330,1995,194.683,59.537,13.288
2019-06-08T08:01:14,42.805,6.029,4330,1995,194.640,59.525,13.289
2019-06-08T08:04:14,42.805,6.029,4330,1995,194.676,59.535,13.288
2019-06-08T08:07:14,42.805,6.029,4330,1995,194.622,59.521,13.290
2019-06-08T08:10:14,42.805,6.029,4330,1995,194.633,59.524,13.290
2019-06-08T08:13:14,42.805,6.029,4330,1995,194.650,59.527,13.288
2019-06-08T08:16:14,42.805,6.029,4330,1995,194.618,59.518,13.289
2019-06-08T08:19:14,42.805,6.029,4330,1995,194.677,59.536,13.289
2019-06-08T08:22:14,42.805,6.029,4330,1995,194.707,59.546,13.289
2019-06-08T08:25:14,42.805,6.029,4330,1995,194.673,59.536,13.290
2019-06-08T08:28:14,42.805,6.029,4330,1995,194.708,59.545,13.289
2019-06-08T08:31:14,42.805,6.029,4330,1995,194.691,59.542,13.290
2019-06-08T08:34:14,42.805,6.029,4330,1995,194.636,59.525,13.290
2019-06-08T08:37:14,42.805,6.029,4330,1995,194.715,59.548,13.289
2019-06-08T08:40:14,42.805,6.029,4330,1995,194.670,59.535,13.289
2019-06-08T08:43:14,42.805,6.029,4330,1995,194.691,59.540,13.289
2019-06-08T08:46:14,42.805,6.029,4330,1995,194.714,59.550,13.290
2019-06-08T08:49:14,42.805,6.029,4330,1995,194.723,59.551,13.289
2019-06-08T08:52:14,42.805,6.029,4330,1995,194.654,59.531,13.291
2019-06-08T08:55:14,42.805,6.029,4330,1995,194.729,59.554,13.291
2019-06-08T08:58:14,42.805,6.029,4330,1995,194.684,59.539,13.289
2019-06-08T09:01:14,42.805,6.029,4330,1995,194.734,59.555,13.290
2019-06-08T09:04:14,42.805,6.029,4330,1995,194.795,59.574,13.290
2019-06-08T09:07:14,42.805,6.029,4330,1995,194.799,59.576,13.291
2019-06-08T09:10:14,42.805,6.029,4330,1995,194.792,59.574,13.291
2019-06-08T09:13:14,42.805,6.029,4330,1995,194.730,59.554,13.290
2019-06-08T09:16:14,42.805,6.029,4330,1995,194.695,59.543,13.290
2019-06-08T09:19:14,42.805,6.029,4330,1995,194.770,59.566,13.290
2019-06-08T09:22:14,42.805,6.029,4330,1995,194.760,59.563,13.290
2019-06-08T09:25:14,42.805,6.029,4330,1995,194.732,59.553,13.289
2019-06-08T09:28:14,42.805,6.029,4330,1995,194.753,59.561,13.290
2019-06-08T09:31:14,42.805,6.029,4330,1995,194.707,59.545,13.289
2019-06-08T09:34:14,42.805,6.029,4330,1995,194.709,59.547,13.290
2019-06-08T09:37:14,42.805,6.029,4330,1995,194.763,59.562,13.288
2019-06-08T09:40:14,42.805,6.029,4330,1995,194.860,59.591,13.288
2019-06-08T09:43:14,42.805,6.029,4330,1995,194.797,59.573,13.289
2019-06-08T09:46:14,42.805,6.029,4330,1995,194.723,59.549,13.288
2019-06-08T09:49:14,42.805,6.029,4330,1995,194.750,59.558,13.288
2019-06-08T09:52:14,42.805,6.029,4330,1995,194.804,59.574,13.288
2019-06-08T09:55:14,42.805,6.029,4330,1995,194.778,59.566,13.288
2019-06-08T09:58:14,42.805,6.029,4330,1995,194.844,59.587,13.289
2019-06-08T10:01:14,42.805,6.029,4330,1995,194.812,59.576,13.288
2019-06-08T10:04:14,42.805,6.029,4330,1995,194.785,59.569,13.289
2019-06-08T10:07:14,42.805,6.029,4330,1995,194.797,59.573,13.289
2019-06-08T10:10:14,42.805,6.029,4330,1995,194.777,59.566,13.288
2019-06-08T10:13:14,42.805,6.029,4330,1995,194.803,59.574,13.288
2019-06-08T10:16:14,42.805,6.029,4330,1995,194.827,59.582,13.289
2019-06-08T10:19:14,42.805,6.029,4330,1995,194.711,59.547,13.289
2019-06-08T10:22:14,42.805,6.029,4330,1995,194.691,59.541,13.289
2019-06-08T10:25:14,42.805,6.029,4330,1995,194.748,59.560,13.290
2019-06-08T10:28:14,42.805,6.029,4330,1995,194.759,59.561,13.289
2019-06-08T10:31:14,42.805,6.029,4330,1995,194.710,59.548,13.290
2019-06-08T10:34:14,42.805,6.029,4330,1995,194.658,59.533,13.291
2019-06-08T10:37:14,42.805,6.029,4330,1995,194.670,59.535,13.290
2019-06-08T10:40:14,42.805,6.029,4330,1995,194.712,59.548,13.290
2019-06-08T10:43:14,42.805,6.029,4330,1995,194.729,59.554,13.291
2019-06-08T10:46:14,42.805,6.029,4330,1995,194.677,59.538,13.290
2019-06-08T10:49:14,42.805,6.029,4330,1995,194.736,59.554,13.289
2019-06-08T10:52:14,42.805,6.029,4330,1995,194.739,59.557,13.290
2019-06-08T10:55:14,42.805,6.029,4330,1995,194.724,59.552,13.290
2019-06-08T10:58:14,42.805,6.029,4330,1995,194.735,59.554,13.289
2019-06-08T11:01:14,42.805,6.029,4330,1995,194.783,59.570,13.290
2019-06-08T11:04:14,42.805,6.029,4330,1995,194.762,59.563,13.289
2019-06-08T11:07:14,42.805,6.029,4330,1995,194.654,59.530,13.289
2019-06-08T11:10:14,42.805,6.029,4330,1995,194.742,59.559,13.291
2019-06-08T11:13:14,42.805,6.029,4330,1995,194.738,59.555,13.289
2019-06-08T11:16:14,42.805,6.029,4330,1995,194.749,59.560,13.290
2019-06-08T11:19:14,42.805,6.029,4330,1995,194.689,59.542,13.291
2019-06-08T11:22:14,42.805,6.029,4330,1995,194.780,59.568,13.290
2019-06-08T11:25:14,42.805,6.029,4330,1995,194.782,59.570,13.290
2019-06-08T11:28:14,42.805,6.029,4330,1995,194.712,59.548,13.290
2019-06-08T11:31:14,42.805,6.029,4330,1995,194.703,59.545,13.290
2019-06-08T11:34:14,42.805,6.029,4330,1995,194.726,59.553,13.290
2019-06-08T11:37:14,42.805,6.029,4330,1995,194.694,59.542,13.289
2019-06-08T11:40:14,42.805,6.029,4330,1995,194.720,59.550,13.289
2019-06-08T11:43:14,42.805,6.029,4330,1995,194.760,59.562,13.289
2019-06-08T11:46:14,42.805,6.029,4330,1995,194.775,59.566,13.289
2019-06-08T11:49:14,42.805,6.029,4330,1995,194.780,59.567,13.289
2019-06-08T11:52:14,42.805,6.029,4330,1995,194.765,59.563,13.289
2019-06-08T11:55:14,42.805,6.029,4330,1995,194.797,59.573,13.289
2019-06-08T11:58:14,42.805,6.029,4330,1995,194.767,59.563,13.288
2019-06-08T12:01:14,42.805,6.029,4330,1995,194.759,59.561,13.289
2019-06-08T12:04:14,42.805,6.029,4330,1995,194.785,59.568,13.288
2019-06-08T12:07:14,42.805,6.029,4330,1995,194.817,59.578,13.288
2019-06-08T12:10:14,42.805,6.029,4330,1995,194.874,59.595,13.288
2019-06-08T12:13:14,42.805,6.029,4330,1995,194.763,59.562,13.288
2019-06-08T12:16:14,42.805,6.029,4330,1995,194.815,59.578,13.288
2019-06-08T12:19:14,42.805,6.029,4330,1995,194.816,59.578,13.289
2019-06-08T12:22:14,42.805,6.029,4330,1995,194.831,59.583,13.289
2019-06-08T12:25:14,42.805,6.029,4330,1995,194.847,59.587,13.288
2019-06-08T12:28:14,42.805,6.029,4330,1995,194.847,59.588,13.289
2019-06-08T12:31:14,42.805,6.029,4330,1995,194.849,59.587,13.288
2019-06-08T12:34:14,42.805,6.029,4330,1995,194.877,59.597,13.289
2019-06-08T12:37:14,42.805,6.029,4330,1995,194.867,59.594,13.289
2019-06-08T12:40:14,42.805,6.029,4330,1995,194.822,59.580,13.289
2019-06-08T12:43:14,42.805,6.029,4330,1995,194.811,59.577,13.289
2019-06-08T12:46:14,42.805,6.029,4330,1995,194.874,59.596,13.288
2019-06-08T12:49:14,42.805,6.029,4330,1995,194.855,59.589,13.288
2019-06-08T12:52:14,42.805,6.029,4330,1995,194.844,59.586,13.288
2019-06-08T12:55:14,42.805,6.029,4330,1995,194.908,59.606,13.288
2019-06-08T12:58:14,42.805,6.029,4330,1995,194.786,59.569,13.289
2019-06-08T13:01:14,42.805,6.029,4330,1995,194.787,59.569,13.288
2019-06-08T13:04:14,42.805,6.029,4330,1995,194.832,59.584,13.289
2019-06-08T13:07:14,42.805,6.029,4330,1995,194.826,59.582,13.289
2019-06-08T13:10:14,42.805,6.029,4330,1995,194.942,59.617,13.289
2019-06-08T13:13:14,42.805,6.029,4330,1995,194.917,59.611,13.290
2019-06-08T13:16:14,42.805,6.029,4330,1995,194.902,59.605,13.289
2019-06-08T13:19:14,42.805,6.029,4330,1995,194.915,59.609,13.289
2019-06-08T13:22:14,42.805,6.029,4330,1995,194.945,59.619,13.289
2019-06-08T13:25:14,42.805,6.029,4330,1995,194.935,59.615,13.289
2019-06-08T13:28:14,42.805,6.029,4330,1995,194.953,59.621,13.289
2019-06-08T13:31:14,42.805,6.029,4330,1995,194.979,59.628,13.289
2019-06-08T13:34:14,42.805,6.029,4330,1995,194.899,59.605,13.290
2019-06-08T13:37:14,42.805,6.029,4330,1995,194.875,59.596,13.289
2019-06-08T13:40:14,42.805,6.029,4330,1995,194.794,59.573,13.290
2019-06-08T13:43:14,42.805,6.029,4330,1995,194.775,59.567,13.290
2019-06-08T13:46:14,42.805,6.029,4330,1995,194.836,59.585,13.289
2019-06-08T13:49:14,42.805,6.029,4330,1995,194.910,59.608,13.290
2019-06-08T13:52:14,42.805,6.029,4330,1995,194.952,59.620,13.289
2019-06-08T13:55:14,42.805,6.029,4330,1995,194.862,59.592,13.288
2019-06-08T13:58:14,42.805,6.029,4330,1995,194.930,59.613,13.289
2019-06-08T14:01:14,42.805,6.029,4330,1995,195.009,59.637,13.289
2019-06-08T14:04:14,42.805,6.029,4330,1995,194.884,59.599,13.288
2019-06-08T14:07:14,42.805,6.029,4330,1995,194.949,59.619,13.288
2019-06-08T14:10:14,42.805,6.029,4330,1995,194.889,59.600,13.288
2019-06-08T14:13:14,42.805,6.029,4330,1995,194.843,59.587,13.289
2019-06-08T14:16:14,42.805,6.029,4330,1995,194.944,59.616,13.288
2019-06-08T14:19:14,42.805,6.029,4330,1995,194.849,59.587,13.288
2019-06-08T14:22:14,42.805,6.029,4330,1995,194.766,59.561,13.288
2019-06-08T14:25:14,42.805,6.029,4330,1995,194.796,59.572,13.288
2019-06-08T14:28:14,42.805,6.029,4330,1995,194.903,59.604,13.288
2019-06-08T14:31:14,42.805,6.029,4330,1995,194.848,59.587,13.288
2019-06-08T14:34:14,42.805,6.029,4330,1995,194.886,59.600,13.289
2019-06-08T14:37:14,42.805,6.029,4330,1995,194.876,59.596,13.288
2019-06-08T14:40:14,42.805,6.029,4330,1995,194.971,59.626,13.289
2019-06-08T14:43:14,42.805,6.029,4330,1995,194.768,59.564,13.289
2019-06-08T14:46:14,42.805,6.029,4330,1995,194.881,59.598,13.288
2019-06-08T14:49:14,42.805,6.029,4330,1995,194.853,59.589,13.288
2019-06-08T14:52:14,42.805,6.029,4330,1995,194.887,59.601,13.289
2019-06-08T14:55:14,42.805,6.029,4330,1995,194.823,59.580,13.288
2019-06-08T14:58:14,42.805,6.029,4330,1995,194.870,59.594,13.288
2019-06-08T15:01:14,42.805,6.029,4330,1995,194.831,59.585,13.290
2019-06-08T15:04:14,42.805,6.029,4330,1995,194.781,59.567,13.288
2019-06-08T15:07:14,42.805,6.029,4330,1995,194.813,59.578,13.289
2019-06-08T15:10:14,42.805,6.029,4330,1995,194.859,59.591,13.289
2019-06-08T15:13:14,42.805,6.029,4330,1995,194.828,59.582,13.289
2019-06-08T15:16:14,42.805,6.029,4330,1995,194.845,59.588,13.289
2019-06-08T15:19:14,42.805,6.029,4330,1995,194.784,59.568,13.289
2019-06-08T15:22:14,42.805,6.029,4330,1995,194.780,59.569,13.290
2019-06-08T15:25:14,42.805,6.029,4330,1995,194.780,59.568,13.290
2019-06-08T15:28:14,42.805,6.029,4330,1995,194.652,59.531,13.290
2019-06-08T15:31:14,42.805,6.029,4330,1995,194.805,59.576,13.289
2019-06-08T15:34:14,42.805,6.029,4330,1995,194.767,59.565,13.290
2019-06-08T15:37:14,42.805,6.029,4330,1995,194.851,59.591,13.290
2019-06-08T15:40:14,42.805,6.029,4330,1995,194.810,59.579,13.291
2019-06-08T15:43:14,42.805,6.029,4330,1995,194.826,59.582,13.289
2019-06-08T15:46:14,42.805,6.029,4330,1995,194.857,59.593,13.290
2019-06-08T15:49:14,42.805,6.029,4330,1995,194.781,59.569,13.290
2019-06-08T15:52:14,42.805,6.029,4330,1995,194.827,59.583,13.289
2019-06-08T15:55:14,42.805,6.029,4330,1995,194.824,59.582,13.289
2019-06-08T15:58:14,42.805,6.029,4330,1995,194.806,59.576,13.289
2019-06-08T16:01:14,42.805,6.029,4330,1995,194.811,59.577,13.289
2019-06-08T16:04:14,42.805,6.029,4330,1995,194.855,59.590,13.288
2019-06-08T16:07:14,42.805,6.029,4330,1995,194.835,59.584,13.289
2019-06-08T16:10:14,42.805,6.029,4330,1995,194.861,59.593,13.289
2019-06-08T16:13:14,42.805,6.029,4330,1995,194.840,59.586,13.289
2019-06-08T16:16:14,42.805,6.029,4330,1995,194.842,59.586,13.289
2019-06-08T16:19:14,42.805,6.029,4330,1995,194.849,59.588,13.288
2019-06-08T16:22:14,42.805,6.029,4330,1995,194.763,59.563,13.289
2019-06-08T16:25:14,42.805,6.029,4330,1995,194.843,59.587,13.289
2019-06-08T16:28:14,42.805,6.029,4330,1995,194.810,59.576,13.288
2019-06-08T16:31:14,42.805,6.029,4330,1995,194.818,59.579,13.289
2019-06-08T16:34:14,42.805,6.029,4330,1995,194.906,59.605,13.288
2019-06-08T16:37:14,42.805,6.029,4330,1995,194.912,59.606,13.288
2019-06-08T16:40:14,42.805,6.029,4330,1995,194.834,59.583,13.288
2019-06-08T16:43:14,42.805,6.029,4330,1995,194.886,59.600,13.289
2019-06-08T16:46:14,42.805,6.029,4330,1995,194.821,59.578,13.288
2019-06-08T16:49:14,42.805,6.029,4330,1995,194.835,59.584,13.289
2019-06-08T16:52:14,42.805,6.029,4330,1995,194.923,59.611,13.288
2019-06-08T16:55:14,42.805,6.029,4330,1995,194.958,59.622,13.289
2019-06-08T16:58:14,42.805,6.029,4330,1995,195.017,59.640,13.288
2019-06-08T17:01:14,42.805,6.029,4330,1995,194.957,59.622,13.289
2019-06-08T17:04:14,42.805,6.029,4330,1995,194.822,59.580,13.288
2019-06-08T17:07:14,42.805,6.029,4330,1995,194.904,59.606,13.289
2019-06-08T17:10:14,42.805,6.029,4330,1995,194.891,59.601,13.288
2019-06-08T17:13:14,42.805,6.029,4330,1995,194.833,59.585,13.290
2019-06-08T17:16:14,42.805,6.029,4330,1995,194.957,59.621,13.288
2019-06-08T17:19:14,42.805,6.029,4330,1995,194.883,59.600,13.289
2019-06-08T17:22:14,42.805,6.029,4330,1995,194.933,59.614,13.288
2019-06-08T17:25:14,42.805,6.029,4330,1995,194.797,59.572,13.289
2019-06-08T17:28:14,42.805,6.029,4330,1995,194.899,59.605,13.290
2019-06-08T17:31:14,42.805,6.029,4330,1995,195.060,59.654,13.289
2019-06-08T17:34:14,42.805,6.029,4330,1995,195.002,59.637,13.290
2019-06-08T17:37:14,42.805,6.029,4330,1995,195.098,59.666,13.290
2019-06-08T17:40:14,42.805,6.029,4330,1995,195.084,59.661,13.289
2019-06-08T17:43:14,42.805,6.029,4330,1995,195.109,59.669,13.289
2019-06-08T17:46:14,42.805,6.029,4330,1995,195.035,59.645,13.288
2019-06-08T17:49:14,42.805,6.029,4330,1995,194.990,59.633,13.290
2019-06-08T17:52:14,42.805,6.029,4330,1995,195.066,59.658,13.291
2019-06-08T17:55:14,42.805,6.029,4330,1995,195.120,59.672,13.289
2019-06-08T17:58:14,42.805,6.029,4330,1995,195.110,59.668,13.289
2019-06-08T18:01:14,42.805,6.029,4330,1995,195.161,59.685,13.290
2019-06-08T18:04:14,42.805,6.029,4330,1995,195.061,59.654,13.289
2019-06-08T18:07:14,42.805,6.029,4330,1995,195.087,59.661,13.289